This demonstration page uses our WeatherBlox Daily Observations layout. Learn more.

Hourly Observations for March 28, 2016

Temp ( °F °C ) Dew Point ( °F °C ) Humidity (%) Winds ( mph kmh ) Pressure ( in mb ) Visibility ( mi km ) Precip ( " mm )
12:15 am 00:15 Cloudy with Mist and Fog 50 10 50 10 100 100 SE 6 9 30 1016 2 3.218688 0 0
12:35 am 00:35 Cloudy with Mist and Fog 50 10 50 10 100 100 SE 6 9 30 1016 2 3.218688 0 0
12:55 am 00:55 Cloudy with Mist and Fog 50 10 50 10 100 100 SE 3 6 30 1016 2 3.218688 0.01 0.254
1:15 am 01:15 Cloudy with Mist and Fog 50 10 50 10 100 100 SE 3 6 29.97 1015 1.75 2.816352 0 0
1:35 am 01:35 Cloudy with Mist and Fog 50 10 50 10 100 100 ESE 5 7 29.97 1015 1.75 2.816352 0 0
1:55 am 01:55 Cloudy with Light Rain 50 10 50 10 100 100 Calm 29.94 1014 2.5 4.02336 0.01 0.254
2:15 am 02:15 Cloudy with Light Rain 50 10 50 10 100 100 ESE 3 6 29.94 1014 7 11.265408 0 0
2:35 am 02:35 Cloudy with Mist and Fog 50 10 50 10 100 100 Calm 29.91 1013 4 6.437376 0 0
2:55 am 02:55 Cloudy with Mist and Fog 50 10 50 10 100 100 SSE 3 6 29.91 1013 5 8.04672 0 0
3:15 am 03:15 Cloudy with Light Rain 50 10 50 10 100 100 SE 5 7 29.91 1013 3 4.828032 0.01 0.254
3:35 am 03:35 Cloudy with Rain 50 10 50 10 100 100 SE 3 6 29.88 1012 3 4.828032 0.02 0.508
3:55 am 03:55 Cloudy with Light Rain 50 10 50 10 100 100 Calm 29.88 1012 4 6.437376 0.04 1.016
4:15 am 04:15 Cloudy 50 10 50 10 100 100 Calm 29.88 1012 7 11.265408 0.01 0.254
4:35 am 04:35 Cloudy with Rain 50 10 50 10 100 100 SSE 5 7 29.85 1011 7 11.265408 0.01 0.254
4:55 am 04:55 Cloudy with Light Rain 50 10 50 10 100 100 SE 3 6 29.83 1010 7 11.265408 0.04 1.016
5:15 am 05:15 Cloudy with Rain 50 10 50 10 100 100 SE 3 6 29.83 1010 7 11.265408 0.02 0.508
5:35 am 05:35 Cloudy with Rain 50 10 50 10 100 100 SE 5 7 29.8 1009 5 8.04672 0.07 1.778
5:55 am 05:55 Cloudy with Rain 50 10 50 10 100 100 S 3 6 29.8 1009 7 11.265408 0.09 2.286
6:15 am 06:15 Cloudy with Light Rain 50 10 50 10 100 100 SSE 5 7 29.8 1009 10 16.09344 0.01 0.254
6:35 am 06:35 Cloudy with Light Drizzle 50 10 50 10 100 100 SSE 5 7 29.77 1008 7 11.265408 0.02 0.508
6:55 am 06:55 Cloudy with Light Rain 50 10 50 10 100 100 SSE 5 7 29.77 1008 7 11.265408 0.03 0.762
7:15 am 07:15 Cloudy with Light Rain 50 10 50 10 100 100 Calm 29.77 1008 7 11.265408 0.01 0.254
7:35 am 07:35 Cloudy 50 10 50 10 100 100 S 3 6 29.77 1008 10 16.09344 0.02 0.508
7:55 am 07:55 Cloudy with Light Rain 50 10 50 10 100 100 Calm 29.74 1007 7 11.265408 0.02 0.508
8:15 am 08:15 Cloudy 50 10 50 10 100 100 NW 14 22 29.8 1009 7 11.265408 0 0
8:35 am 08:35 Cloudy with Light Rain 50 10 50 10 100 100 Calm 29.74 1007 10 16.09344 0.03 0.762
8:55 am 08:55 Mostly Cloudy 50 10 50 10 100 100 Calm 29.71 1006 10 16.09344 0.03 0.762
9:15 am 09:15 Mostly Cloudy 52 11 52 11 100 100 Calm 29.71 1006 10 16.09344 0 0
9:35 am 09:35 Cloudy 54 12 54 12 100 100 S 5 7 29.71 1006 10 16.09344 0 0
9:55 am 09:55 Cloudy 54 12 54 12 100 100 SW 6 9 29.71 1006 10 16.09344 0 0
10:15 am 10:15 Cloudy 55 13 55 13 100 100 W 5 7 29.71 1006 10 16.09344 0 0
10:35 am 10:35 Mostly Cloudy 59 15 57 14 94 94 WNW 7 11 29.71 1006 10 16.09344 0 0
10:55 am 10:55 Partly Cloudy 59 15 57 14 94 94 W 5 7 29.71 1006 10 16.09344 0 0
11:15 am 11:15 Sunny 63 17 55 13 77 77 W 14 22 29.71 1006 10 16.09344 0 0
11:35 am 11:35 Partly Cloudy 64 18 50 10 60 60 WNW 21 33 29.68 1005 10 16.09344 0 0
11:55 am 11:55 Mostly Cloudy 68 20 50 10 53 53 NW 22 35 29.71 1006 10 16.09344 0 0
12:15 pm 12:15 Partly Cloudy 66 19 50 10 56 56 W 24 39 29.71 1006 10 16.09344 0 0
12:35 pm 12:35 Partly Cloudy 64 18 46 8 52 52 WNW 26 43 29.71 1006 10 16.09344 0 0
12:55 pm 12:55 Mostly Cloudy 66 19 46 8 49 49 NW 12 19 29.71 1006 10 16.09344 0 0
1:15 pm 13:15 Partly Cloudy 66 19 45 7 46 46 WNW 29 46 29.71 1006 10 16.09344 0 0
1:35 pm 13:35 Sunny 64 18 41 5 43 43 WNW 22 35 29.74 1007 10 16.09344 0 0
1:55 pm 13:55 Sunny 64 18 41 5 43 43 WNW 23 37 29.74 1007 10 16.09344 0 0
2:15 pm 14:15 Sunny 64 18 43 6 46 46 NW 25 41 29.74 1007 10 16.09344 0 0
2:35 pm 14:35 Sunny 64 18 43 6 46 46 WNW 23 37 29.74 1007 10 16.09344 0 0
2:55 pm 14:55 Sunny 63 17 41 5 45 45 WNW 26 43 29.77 1008 10 16.09344 0 0
3:15 pm 15:15 Sunny 63 17 39 4 42 42 WNW 30 48 29.77 1008 10 16.09344 0 0
3:35 pm 15:35 Partly Cloudy 61 16 41 5 48 48 NW 28 44 29.77 1008 10 16.09344 0 0
3:55 pm 15:55 Sunny 63 17 41 5 45 45 WNW 30 48 29.77 1008 10 16.09344 0 0
4:15 pm 16:15 Partly Cloudy 61 16 39 4 45 45 WNW 31 50 29.8 1009 10 16.09344 0 0
4:35 pm 16:35 Mostly Cloudy 61 16 39 4 45 45 WNW 33 54 29.8 1009 10 16.09344 0 0
4:55 pm 16:55 Cloudy 59 15 39 4 48 48 WNW 25 41 29.8 1009 10 16.09344 0 0
5:15 pm 17:15 Mostly Cloudy 59 15 39 4 48 48 W 23 37 29.8 1009 10 16.09344 0 0
5:35 pm 17:35 Partly Cloudy 59 15 39 4 48 48 WNW 29 46 29.8 1009 10 16.09344 0 0
5:55 pm 17:55 Mostly Cloudy 59 15 39 4 48 48 WNW 31 50 29.83 1010 10 16.09344 0 0
6:15 pm 18:15 Mostly Cloudy 57 14 39 4 51 51 NW 22 35 29.83 1010 10 16.09344 0 0
6:35 pm 18:35 Cloudy 57 14 39 4 51 51 WNW 21 33 29.83 1010 10 16.09344 0 0
6:55 pm 18:55 Cloudy 55 13 39 4 55 55 WNW 26 43 29.83 1010 10 16.09344 0 0
7:15 pm 19:15 Cloudy 55 13 39 4 55 55 WNW 24 39 29.85 1011 10 16.09344 0 0
7:35 pm 19:35 Cloudy 55 13 39 4 55 55 WNW 21 33 29.85 1011 10 16.09344 0 0
7:55 pm 19:55 Cloudy 55 13 39 4 55 55 NW 23 37 29.85 1011 10 16.09344 0 0
8:15 pm 20:15 Cloudy 55 13 39 4 55 55 WNW 29 46 29.88 1012 10 16.09344 0 0
8:35 pm 20:35 Cloudy 55 13 39 4 55 55 WNW 23 37 29.88 1012 10 16.09344 0 0
8:55 pm 20:55 Cloudy 54 12 39 4 58 58 WNW 20 31 29.88 1012 10 16.09344 0 0
9:15 pm 21:15 Partly Cloudy 54 12 39 4 58 58 WNW 21 33 29.91 1013 10 16.09344 0 0
9:35 pm 21:35 Partly Cloudy 54 12 39 4 58 58 WNW 18 30 29.91 1013 10 16.09344 0 0
9:55 pm 21:55 Cloudy 54 12 39 4 58 58 WNW 24 39 29.91 1013 10 16.09344 0 0
10:15 pm 22:15 Cloudy 54 12 37 3 54 54 WNW 22 35 29.91 1013 10 16.09344 0 0
10:35 pm 22:35 Cloudy 54 12 39 4 58 58 WNW 20 31 29.94 1014 10 16.09344 0 0
10:55 pm 22:55 Cloudy 54 12 39 4 58 58 WNW 25 41 29.94 1014 10 16.09344 0 0
11:15 pm 23:15 Mostly Cloudy 54 12 37 3 54 54 NW 16 26 29.94 1014 10 16.09344 0 0
11:35 pm 23:35 Mostly Cloudy 54 12 39 4 58 58 NW 16 26 29.94 1014 10 16.09344 0 0
11:55 pm 23:55 Cloudy 54 12 37 3 54 54 NW 18 30 29.94 1014 10 16.09344 0 0

Powered by AerisWeather